SCP
0 0 0 0 0 0 0 0 0 0 0 0 0 0 0 0 0 0 0 0 0 0 0 0 0 0 0 0 0 0 0 0 0 0 0 0 0 0 0 0 0 0 0
0 0 0 0 0 0 0 0 0 0 0 0 0 0 0 0 0 0 0 0 0 0 0 0 0 0 0 0 0 0 0 0 0 0 0 0 0 0 0 0 0 0 0
0 0 0 0 0 0 0 0 0 0 0 0 0 0 0 0 0 0 0 0 0 0 0 0 0 0 0 0 0 0 0 0 0 0 0 0 0 0 0 0 0 0 0
0 0 0 0 0 0 0 0 0 0 0 0 0 0 0 0 0 0 0 0 0 0 0 0 0 0 0 0 0 0 0 0 0 0 0 0 0 0 0 0 0 0 0
0 0 0 0 0 0 0 0 0 0 0 0 0 0 0 0 0 0 0 0 0 0 0 0 0 0 0 0 0 0 0 0 0 0 0 0 0 0 0 0 0 0 0
0 0 0 0 0 0 0 0 0 0 0 0 0 0 0 0 0 0 0 0 0 0 0 0 0 0 0 0 0 0 0 0 0 0 0 0 0 0 0 0 0 0 0
0 0 0 0 0 0 0 0 0 0 0 0 0 0 0 0 0 0 0 0 0 0 0 0 0 0 0 0 0 0 0 0 0 0 0 0 0 0 0 0 0 0 0
0 0 0 0 0 0 0 0 0 0 0 0 0 0 0 0 0 0 0 0 0 0 0 0 0 0 0 0 0 0 0 0 0 0 0 0 0 0 0 0 0 0 0
0 0 0 0 0 0 0 0 0 0 0 0 0 0 0 0 0 0 0 0 0 0 0 0 0 0 0 0 0 0 0 0 0 0 0 0 0 0 0 0 0 0 0
0 0 0 0 0 0 0 0 0 0 0 0 0 0 0 0 0 0 0 0 0 0 0 0 0 0 0 0 0 0 0 0 0 0 0 0 0 0 0 0 0 0 0
0 0 0 0 0 0 0 0 0 0 0 0 0 0 0 0 0 0 0 0 0 0 0 0 0 0 0 0 0 0 0 0 0 0 0 0 0 0 0 0 0 0 0
0 0 0 0 0 0 0 0 0 0 0 0 0 0 0 0 0 0 0 0 0 0 0 0 0 0 0 0 0 0 0 0 0 0 0 0 0 0 0 0 0 0 0
0 0 0 0 0 0 0 0 0 0 0 0 0 0 0 0 0 0 0 0 0 0 0 0 0 0 0 0 0 0 0 0 0 0 0 0 0 0 0 0 0 0 0
0 0 0 0 0 0 0 0 0 0 0 0 0 0 0 0 0 0 0 0 0 0 0 0 0 0 0 0 0 0 0 0 0 0 0 0 0 0 0 0 0 0 0
0 0 0 0 0 0 0 0 0 0 0 0 0 0 0 0 0 0 0 0 0 0 0 0 0 0 0 0 0 0 0 0 0 0 0 0 0 0 0 0 0 0 0
0 0 0 0 0 0 0 0 0 0 0 0 0 0 0 0 0 0 0 0 0 0 0 0 0 0 0 0 0 0 0 0 0 0 0 0 0 0 0 0 0 0 0
0 0 0 0 0 0 0 0 0 0 0 0 0 0 0 0 0 0 0 0 0 0 0 0 0 0 0 0 0 0 0 0 0 0 0 0 0 0 0 0 0 0 0
0 0 0 0 0 0 0 0 0 0 0 0 0 0 0 0 0 0 0 0 0 0 0 0 0 0 0 0 0 0 0 0 0 0 0 0 0 0 0 0 0 0 0
0 0 0 0 0 0 0 0 0 0 0 0 0 0 0 0 0 0 0 0 0 0 0 0 0 0 0 0 0 0 0 0 0 -0 -0 -0 -0 -0 0 0 0 0 0
0 0 0 0 0 0 0 0 0 0 0 0 0 0 0 0 0 0 0 0 0 0 0 0 0 0 0 0 0 0 0 -0 0 -0 -0 -0 -0 -0 -0 0 0 0 0
0 0 0 0 0 0 0 0 0 0 0 0 0 0 0 0 0 0 0 0 0 0 0 0 0 0 0 0 0 0 0 -0 0 -0 0 0 0 0 0 0 0 0 0
0 0 0 0 0 0 0 0 0 0 0 0 0 0 0 0 0 0 0 0 0 0 0 0 0 0 0 0 0 0 0 0 -0 0 0 0 0 0 0 0 0 0 0
0 0 0 0 0 0 0 0 0 0 0 0 0 0 0 0 0 0 0 0 0 0 0 0 0 0 0 0 0 0 0 0 0 0 0 0 0 0 0 0 -0 -0 0
0 0 0 0 0 0 0 0 0 0 0 0 0 0 0 0 0 0 0 0 0 0 0 0 0 0 0 0 0 0 0 0 0 0 0 0 0 0 0 0 -0 0 0
0 0 0 0 0 0 0 0 0 0 0 0 0 0 0 0 0 0 0 0 0 0 0 0 0 0 0 0 0 0 0 0 0 0 0 0 0 0 0 -0 0 0 0
0 0 0 0 0 0 0 0 0 0 0 0 0 0 0 0 0 0 0 0 0 0 0 0 0 0 0 0 0 0 0 0 0 0 0 0 0 0 0 0 0 0 0
Wind_Speed_500mb
7 7 5 4 5 5 5 6 7 8 8 8 8 7 8 8 9 10 11 10 13 15 16 18 20 24 27 28 29 32 32 32 30 29 27 24 24 24 28 27 23 27 25
14 12 12 10 9 8 8 8 9 12 14 14 14 14 13 13 14 15 16 18 18 18 19 21 24 25 27 28 28 28 33 38 41 41 40 41 37 34 33 33 35 34 34
20 18 18 17 15 13 12 13 14 14 15 16 18 19 21 21 20 20 21 21 22 23 26 28 30 31 32 34 33 33 32 32 34 35 37 44 47 52 49 41 42 44 44
27 26 24 21 18 17 17 18 19 19 20 20 21 22 24 26 27 27 27 28 28 29 31 33 34 33 36 38 38 35 34 34 35 36 43 48 52 46 42 46 55 57 58
32 29 27 22 24 26 26 26 26 25 25 26 25 25 28 29 32 32 31 30 31 32 36 34 31 33 39 36 34 35 33 33 35 36 37 41 45 44 44 44 48 56 41
31 35 32 30 30 30 29 29 30 30 30 30 32 33 35 26 28 31 31 32 32 32 24 28 35 37 34 34 34 35 38 41 44 40 47 48 53 58 62 60 60 60 58
35 36 34 34 34 35 31 31 32 30 30 31 37 35 29 29 29 26 26 29 29 21 31 39 35 38 35 34 35 37 40 46 49 49 50 53 55 57 63 67 66 63 68
39 39 40 39 38 38 39 37 38 37 35 32 35 37 32 26 33 27 27 28 26 35 36 36 37 37 34 35 41 44 43 47 52 53 55 55 53 54 55 57 53 53 55
37 41 41 43 45 43 45 42 43 43 43 40 35 35 25 21 28 32 34 37 38 35 38 36 35 38 41 41 41 43 48 51 52 54 55 56 55 52 52 51 53 53 53
39 42 44 48 47 46 49 47 44 46 45 48 49 50 53 54 39 33 48 45 48 43 38 36 47 43 41 38 39 45 51 52 50 48 44 51 49 49 51 53 55 56 56
43 43 43 41 44 48 48 45 48 51 52 52 56 61 59 63 57 61 48 41 46 46 37 46 46 38 37 38 40 49 47 36 36 46 46 48 49 49 50 54 58 61 61
52 49 46 44 40 44 43 40 42 47 45 49 56 58 56 60 60 62 64 52 46 45 41 37 36 33 29 39 42 40 34 44 43 45 49 51 54 56 56 56 57 56 58
54 52 48 47 47 45 47 46 46 45 44 47 48 51 49 47 48 48 55 50 49 40 31 34 34 34 39 41 35 38 46 47 50 50 51 49 50 52 55 57 58 61 62
50 46 51 52 55 50 49 50 46 46 47 48 49 48 44 44 38 40 44 41 43 40 36 28 22 28 34 36 44 45 50 51 52 54 54 54 54 54 54 56 57 59 58
43 42 43 45 52 55 55 45 46 39 43 49 46 46 44 42 42 39 39 46 46 32 20 19 19 28 33 40 45 51 53 54 55 55 56 56 57 57 56 55 56 58 59
45 42 45 42 42 41 46 39 39 36 43 49 49 43 41 44 40 38 39 38 33 26 21 17 26 26 30 36 41 44 47 48 49 51 50 51 51 49 51 54 55 57 59
37 39 41 40 35 40 35 38 37 34 43 41 42 37 40 38 35 33 31 24 23 24 20 18 21 23 26 29 32 36 42 44 47 50 50 47 46 48 49 50 53 55 58
27 24 22 23 29 29 32 31 36 41 38 30 33 32 25 29 24 20 17 15 13 11 14 18 25 29 33 37 38 36 37 39 38 46 42 46 48 50 51 52 54 56 58
17 15 19 22 24 27 30 37 38 32 29 29 31 27 25 21 17 12 11 10 10 12 17 20 31 40 36 36 39 41 44 48 50 53 57 58 57 53 51 52 53 56 60
15 17 20 22 24 27 33 28 28 22 27 26 24 21 17 13 10 9 6 9 14 17 26 30 27 26 30 34 40 46 53 59 66 57 62 65 61 57 52 52 54 57 54
19 21 21 20 22 22 21 19 21 25 20 18 15 12 9 4 3 5 9 15 21 21 22 24 22 25 30 36 45 51 55 60 65 60 68 71 67 57 54 54 58 54 50
16 17 19 19 23 24 26 24 24 20 19 17 12 10 10 10 4 17 21 19 24 26 21 18 22 26 30 38 44 50 56 62 61 61 69 71 61 55 57 59 58 44 59
19 18 18 19 20 21 23 24 20 16 15 14 12 11 8 10 21 28 27 30 23 16 15 17 21 27 33 39 46 51 55 58 61 63 63 62 48 51 62 65 50 54 61
20 19 20 21 22 23 21 19 19 17 17 15 11 9 18 26 29 28 23 17 13 16 16 18 24 28 33 36 41 46 51 57 60 54 48 39 60 58 66 60 44 63 63
23 22 21 22 22 23 22 23 23 23 21 13 16 20 27 32 34 19 16 15 14 16 15 20 24 26 28 32 39 43 45 51 59 60 33 52 65 60 60 49 40 71 64
24 24 24 25 25 25 27 28 27 27 17 17 22 30 34 32 22 15 15 18 17 12 16 18 21 25 25 30 35 41 45 47 49 53 43 66 59 52 45 44 80 77 71
Wind_Direction_500mb
231 238 248 260 261 260 272 281 285 299 312 317 309 308 305 298 296 306 316 320 323 320 320 325 329 331 331 331 332 336 336 338 336 336 336 333 330 328 323 312 311 310 309
249 251 256 260 267 283 284 289 292 297 300 305 305 300 296 293 289 290 298 301 304 305 309 314 316 317 317 314 311 313 313 315 316 315 316 313 306 302 308 307 306 304 306
252 260 262 264 275 280 288 289 287 288 294 297 297 298 296 294 293 293 294 295 299 302 305 307 306 307 308 307 302 300 301 289 287 292 303 295 292 296 305 293 301 301 296
251 255 263 262 264 276 285 288 291 296 298 297 297 297 296 296 293 294 295 295 297 300 303 304 304 306 310 307 305 302 304 299 298 291 284 290 298 290 293 298 285 286 282
253 255 265 260 268 278 284 291 293 292 294 295 295 299 301 300 296 292 294 289 290 297 301 301 300 302 308 306 305 303 303 304 303 300 290 287 289 291 291 286 282 283 285
250 254 256 255 262 271 277 279 282 287 290 290 292 294 302 304 301 294 291 288 290 297 301 303 300 304 303 303 302 301 302 298 301 294 289 286 287 285 286 285 286 287 290
248 252 256 253 257 265 275 277 283 285 291 290 289 290 292 295 298 300 293 288 284 276 298 299 302 300 300 299 298 298 296 294 296 294 293 291 287 286 283 284 283 287 284
251 251 255 259 261 264 266 270 275 281 281 289 284 286 288 288 285 291 280 280 278 292 296 301 299 302 300 298 298 297 296 294 293 295 296 296 294 292 288 289 290 292 291
256 256 259 264 266 264 266 268 269 271 276 276 272 269 269 260 267 278 276 287 287 298 301 305 305 303 298 297 296 297 298 298 297 297 298 302 304 304 302 299 296 294 292
257 257 260 256 256 258 262 267 273 274 273 277 274 270 270 269 269 272 278 286 291 297 292 305 298 297 291 289 291 293 297 298 301 304 307 310 310 310 311 309 307 305 303
256 254 254 259 260 262 264 265 269 271 274 275 274 273 275 273 271 268 266 276 292 297 291 295 295 286 287 287 291 296 298 309 308 303 304 308 310 309 306 304 303 300 300
259 257 257 261 261 262 263 263 266 270 274 276 278 278 280 279 280 280 279 290 293 288 291 292 292 281 288 294 299 302 305 307 307 307 308 307 307 306 304 300 299 297 296
259 258 260 261 264 263 263 260 262 264 273 274 278 279 283 286 287 282 283 288 286 287 281 279 277 272 304 302 300 305 309 314 316 316 314 315 312 308 306 305 303 303 304
259 258 258 252 253 257 259 258 260 263 272 277 274 278 283 280 276 275 276 279 283 282 280 256 262 288 294 294 306 313 314 318 322 324 324 322 319 318 315 313 311 309 307
254 250 250 252 249 253 253 255 258 256 273 276 269 272 269 272 272 265 268 285 275 275 269 235 264 300 298 304 310 316 320 322 322 321 322 322 320 319 319 319 315 312 310
254 253 250 250 248 244 246 247 247 264 272 272 273 272 259 262 278 266 276 274 272 264 268 259 276 292 296 307 312 315 318 323 325 324 325 324 320 322 320 317 315 313 311
248 247 252 248 235 233 243 251 249 258 267 271 259 266 271 262 260 268 264 261 265 278 283 295 295 307 309 313 316 319 322 326 329 328 326 322 323 323 319 317 316 314 312
241 233 226 236 236 238 242 243 247 259 261 265 262 255 244 254 249 245 259 278 290 309 313 317 322 322 323 326 328 329 331 333 337 337 333 333 334 331 325 323 321 318 314
223 222 226 233 240 245 248 255 250 253 253 246 249 245 239 235 254 266 273 289 295 306 316 324 324 321 321 323 331 333 334 339 347 349 342 348 343 338 336 331 325 320 317
223 228 236 240 247 245 251 243 214 230 245 241 233 240 250 262 265 266 279 297 314 323 320 314 311 310 323 327 332 338 343 343 343 347 341 344 339 340 340 333 329 326 326
223 228 232 237 238 235 213 232 250 253 244 247 255 253 246 228 131 327 338 318 312 301 294 305 324 325 323 328 340 341 339 337 338 346 337 336 337 338 344 339 334 332 334
218 225 228 237 244 248 256 262 261 252 249 238 225 209 185 190 201 313 303 281 282 287 302 314 314 318 333 335 333 337 336 337 338 341 332 330 334 332 343 341 338 336 343
222 225 231 238 244 250 250 250 239 220 206 194 189 192 198 282 300 304 283 278 289 299 294 304 317 328 330 334 334 334 334 331 329 336 333 327 336 325 336 340 339 347 343
231 231 233 239 236 227 219 208 203 197 188 185 184 250 279 287 287 281 277 274 281 283 293 312 322 324 327 330 333 332 330 328 328 342 337 322 333 328 330 341 344 341 344
234 233 234 231 227 220 210 202 194 191 189 212 269 277 291 285 286 265 261 261 262 275 295 323 325 329 330 331 331 329 329 335 335 345 338 323 335 329 331 341 327 343 344
234 231 227 223 218 214 208 201 201 194 227 264 284 287 280 276 264 261 260 263 259 283 317 316 328 331 333 333 332 333 336 339 339 343 332 329 338 338 331 328 334 342 344
Wind_Speed_850mb
7 7 5 4 5 5 5 6 7 8 8 8 8 7 8 8 9 10 11 10 13 15 16 18 20 24 27 28 29 32 32 32 30 29 27 24 24 24 28 27 23 27 25
14 12 12 10 9 8 8 8 9 12 14 14 14 14 13 13 14 15 16 18 18 18 19 21 24 25 27 28 28 28 33 38 41 41 40 41 37 34 33 33 35 34 34
20 18 18 17 15 13 12 13 14 14 15 16 18 19 21 21 20 20 21 21 22 23 26 28 30 31 32 34 33 33 32 32 34 35 37 44 47 52 49 41 42 44 44
27 26 24 21 18 17 17 18 19 19 20 20 21 22 24 26 27 27 27 28 28 29 31 33 34 33 36 38 38 35 34 34 35 36 43 48 52 46 42 46 55 57 58
32 29 27 22 24 26 26 26 26 25 25 26 25 25 28 29 32 32 31 30 31 32 36 34 31 33 39 36 34 35 33 33 35 36 37 41 45 44 44 44 48 56 41
31 35 32 30 30 30 29 29 30 30 30 30 32 33 35 26 28 31 31 32 32 32 24 28 35 37 34 34 34 35 38 41 44 40 47 48 53 58 62 60 60 60 58
35 36 34 34 34 35 31 31 32 30 30 31 37 35 29 29 29 26 26 29 29 21 31 39 35 38 35 34 35 37 40 46 49 49 50 53 55 57 63 67 66 63 68
39 39 40 39 38 38 39 37 38 37 35 32 35 37 32 26 33 27 27 28 26 35 36 36 37 37 34 35 41 44 43 47 52 53 55 55 53 54 55 57 53 53 55
37 41 41 43 45 43 45 42 43 43 43 40 35 35 25 21 28 32 34 37 38 35 38 36 35 38 41 41 41 43 48 51 52 54 55 56 55 52 52 51 53 53 53
39 42 44 48 47 46 49 47 44 46 45 48 49 50 53 54 39 33 48 45 48 43 38 36 47 43 41 38 39 45 51 52 50 48 44 51 49 49 51 53 55 56 56
43 43 43 41 44 48 48 45 48 51 52 52 56 61 59 63 57 61 48 41 46 46 37 46 46 38 37 38 40 49 47 36 36 46 46 48 49 49 50 54 58 61 61
52 49 46 44 40 44 43 40 42 47 45 49 56 58 56 60 60 62 64 52 46 45 41 37 36 33 29 39 42 40 34 44 43 45 49 51 54 56 56 56 57 56 58
54 52 48 47 47 45 47 46 46 45 44 47 48 51 49 47 48 48 55 50 49 40 31 34 34 34 39 41 35 38 46 47 50 50 51 49 50 52 55 57 58 61 62
50 46 51 52 55 50 49 50 46 46 47 48 49 48 44 44 38 40 44 41 43 40 36 28 22 28 34 36 44 45 50 51 52 54 54 54 54 54 54 56 57 59 58
43 42 43 45 52 55 55 45 46 39 43 49 46 46 44 42 42 39 39 46 46 32 20 19 19 28 33 40 45 51 53 54 55 55 56 56 57 57 56 55 56 58 59
45 42 45 42 42 41 46 39 39 36 43 49 49 43 41 44 40 38 39 38 33 26 21 17 26 26 30 36 41 44 47 48 49 51 50 51 51 49 51 54 55 57 59
37 39 41 40 35 40 35 38 37 34 43 41 42 37 40 38 35 33 31 24 23 24 20 18 21 23 26 29 32 36 42 44 47 50 50 47 46 48 49 50 53 55 58
27 24 22 23 29 29 32 31 36 41 38 30 33 32 25 29 24 20 17 15 13 11 14 18 25 29 33 37 38 36 37 39 38 46 42 46 48 50 51 52 54 56 58
17 15 19 22 24 27 30 37 38 32 29 29 31 27 25 21 17 12 11 10 10 12 17 20 31 40 36 36 39 41 44 48 50 53 57 58 57 53 51 52 53 56 60
15 17 20 22 24 27 33 28 28 22 27 26 24 21 17 13 10 9 6 9 14 17 26 30 27 26 30 34 40 46 53 59 66 57 62 65 61 57 52 52 54 57 54
19 21 21 20 22 22 21 19 21 25 20 18 15 12 9 4 3 5 9 15 21 21 22 24 22 25 30 36 45 51 55 60 65 60 68 71 67 57 54 54 58 54 50
16 17 19 19 23 24 26 24 24 20 19 17 12 10 10 10 4 17 21 19 24 26 21 18 22 26 30 38 44 50 56 62 61 61 69 71 61 55 57 59 58 44 59
19 18 18 19 20 21 23 24 20 16 15 14 12 11 8 10 21 28 27 30 23 16 15 17 21 27 33 39 46 51 55 58 61 63 63 62 48 51 62 65 50 54 61
20 19 20 21 22 23 21 19 19 17 17 15 11 9 18 26 29 28 23 17 13 16 16 18 24 28 33 36 41 46 51 57 60 54 48 39 60 58 66 60 44 63 63
23 22 21 22 22 23 22 23 23 23 21 13 16 20 27 32 34 19 16 15 14 16 15 20 24 26 28 32 39 43 45 51 59 60 33 52 65 60 60 49 40 71 64
24 24 24 25 25 25 27 28 27 27 17 17 22 30 34 32 22 15 15 18 17 12 16 18 21 25 25 30 35 41 45 47 49 53 43 66 59 52 45 44 80 77 71
Wind_Direction_850mb
231 238 248 260 261 260 272 281 285 299 312 317 309 308 305 298 296 306 316 320 323 320 320 325 329 331 331 331 332 336 336 338 336 336 336 333 330 328 323 312 311 310 309
249 251 256 260 267 283 284 289 292 297 300 305 305 300 296 293 289 290 298 301 304 305 309 314 316 317 317 314 311 313 313 315 316 315 316 313 306 302 308 307 306 304 306
252 260 262 264 275 280 288 289 287 288 294 297 297 298 296 294 293 293 294 295 299 302 305 307 306 307 308 307 302 300 301 289 287 292 303 295 292 296 305 293 301 301 296
251 255 263 262 264 276 285 288 291 296 298 297 297 297 296 296 293 294 295 295 297 300 303 304 304 306 310 307 305 302 304 299 298 291 284 290 298 290 293 298 285 286 282
253 255 265 260 268 278 284 291 293 292 294 295 295 299 301 300 296 292 294 289 290 297 301 301 300 302 308 306 305 303 303 304 303 300 290 287 289 291 291 286 282 283 285
250 254 256 255 262 271 277 279 282 287 290 290 292 294 302 304 301 294 291 288 290 297 301 303 300 304 303 303 302 301 302 298 301 294 289 286 287 285 286 285 286 287 290
248 252 256 253 257 265 275 277 283 285 291 290 289 290 292 295 298 300 293 288 284 276 298 299 302 300 300 299 298 298 296 294 296 294 293 291 287 286 283 284 283 287 284
251 251 255 259 261 264 266 270 275 281 281 289 284 286 288 288 285 291 280 280 278 292 296 301 299 302 300 298 298 297 296 294 293 295 296 296 294 292 288 289 290 292 291
256 256 259 264 266 264 266 268 269 271 276 276 272 269 269 260 267 278 276 287 287 298 301 305 305 303 298 297 296 297 298 298 297 297 298 302 304 304 302 299 296 294 292
257 257 260 256 256 258 262 267 273 274 273 277 274 270 270 269 269 272 278 286 291 297 292 305 298 297 291 289 291 293 297 298 301 304 307 310 310 310 311 309 307 305 303
256 254 254 259 260 262 264 265 269 271 274 275 274 273 275 273 271 268 266 276 292 297 291 295 295 286 287 287 291 296 298 309 308 303 304 308 310 309 306 304 303 300 300
259 257 257 261 261 262 263 263 266 270 274 276 278 278 280 279 280 280 279 290 293 288 291 292 292 281 288 294 299 302 305 307 307 307 308 307 307 306 304 300 299 297 296
259 258 260 261 264 263 263 260 262 264 273 274 278 279 283 286 287 282 283 288 286 287 281 279 277 272 304 302 300 305 309 314 316 316 314 315 312 308 306 305 303 303 304
259 258 258 252 253 257 259 258 260 263 272 277 274 278 283 280 276 275 276 279 283 282 280 256 262 288 294 294 306 313 314 318 322 324 324 322 319 318 315 313 311 309 307
254 250 250 252 249 253 253 255 258 256 273 276 269 272 269 272 272 265 268 285 275 275 269 235 264 300 298 304 310 316 320 322 322 321 322 322 320 319 319 319 315 312 310
254 253 250 250 248 244 246 247 247 264 272 272 273 272 259 262 278 266 276 274 272 264 268 259 276 292 296 307 312 315 318 323 325 324 325 324 320 322 320 317 315 313 311
248 247 252 248 235 233 243 251 249 258 267 271 259 266 271 262 260 268 264 261 265 278 283 295 295 307 309 313 316 319 322 326 329 328 326 322 323 323 319 317 316 314 312
241 233 226 236 236 238 242 243 247 259 261 265 262 255 244 254 249 245 259 278 290 309 313 317 322 322 323 326 328 329 331 333 337 337 333 333 334 331 325 323 321 318 314
223 222 226 233 240 245 248 255 250 253 253 246 249 245 239 235 254 266 273 289 295 306 316 324 324 321 321 323 331 333 334 339 347 349 342 348 343 338 336 331 325 320 317
223 228 236 240 247 245 251 243 214 230 245 241 233 240 250 262 265 266 279 297 314 323 320 314 311 310 323 327 332 338 343 343 343 347 341 344 339 340 340 333 329 326 326
223 228 232 237 238 235 213 232 250 253 244 247 255 253 246 228 131 327 338 318 312 301 294 305 324 325 323 328 340 341 339 337 338 346 337 336 337 338 344 339 334 332 334
218 225 228 237 244 248 256 262 261 252 249 238 225 209 185 190 201 313 303 281 282 287 302 314 314 318 333 335 333 337 336 337 338 341 332 330 334 332 343 341 338 336 343
222 225 231 238 244 250 250 250 239 220 206 194 189 192 198 282 300 304 283 278 289 299 294 304 317 328 330 334 334 334 334 331 329 336 333 327 336 325 336 340 339 347 343
231 231 233 239 236 227 219 208 203 197 188 185 184 250 279 287 287 281 277 274 281 283 293 312 322 324 327 330 333 332 330 328 328 342 337 322 333 328 330 341 344 341 344
234 233 234 231 227 220 210 202 194 191 189 212 269 277 291 285 286 265 261 261 262 275 295 323 325 329 330 331 331 329 329 335 335 345 338 323 335 329 331 341 327 343 344
234 231 227 223 218 214 208 201 201 194 227 264 284 287 280 276 264 261 260 263 259 283 317 316 328 331 333 333 332 333 336 339 339 343 332 329 338 338 331 328 334 342 344